Location: Jefferson
(30.9666°N, 81.7901°W)
Time: 18:40:20
(UTC+00:00)

ACS3 Solar Sail - Pass Details

Date: 27 September 2024
Orbit: 961 x 1035 km, 97.4° (Epoch: 08 October)

Event Time Altitude Azimuth Distance (km) Brightness Sun altitude
Exits shadow 01:42:22 68° 6° (N) 1,110 2.0 -31.4°
Drops below altitude 10° 01:47:56 10° 351° (N) 2,840 4.5 -32.5°
Sets 01:50:26 0° 350° (N) 3,790 5.2 -33.0°
